SEP654 OPQT-OPKC

Flight info

Callsign SEP654
Flight time 0h 57m
Altitude 31000
Route KALAT J115 IDEBA N636 NH
Aircraft B738/M-SDE2E3FGHIRWXY/LB1

Departure

Time 2026-05-08 22:05
Airport Quetta International Airport (OPQT)

Arrival

Time 2026-05-08 23:03
Airport Jinnah International Airport (OPKC)
Time Latitude Longitude Altitude Speed Heading
2026-05-08 22:00 30.24917 66.94672 5241 ft 2 kts 259°
2026-05-08 22:00 30.24904 66.94656 5241 ft 2 kts 219°
2026-05-08 22:00 30.24890 66.94643 5241 ft 3 kts 209°
2026-05-08 22:00 30.24843 66.94638 5242 ft 9 kts 181°
2026-05-08 22:01 30.24766 66.94589 5242 ft 15 kts 224°
2026-05-08 22:01 30.24699 66.94511 5242 ft 11 kts 215°
2026-05-08 22:01 30.24633 66.94512 5244 ft 7 kts 149°
2026-05-08 22:01 30.24591 66.94550 5246 ft 9 kts 137°
2026-05-08 22:02 30.24535 66.94611 5250 ft 12 kts 134°
2026-05-08 22:02 30.24463 66.94688 5253 ft 15 kts 138°
2026-05-08 22:02 30.24376 66.94781 5257 ft 17 kts 137°
2026-05-08 22:02 30.24290 66.94871 5260 ft 14 kts 136°
2026-05-08 22:03 30.24227 66.94939 5263 ft 10 kts 137°
2026-05-08 22:03 30.24176 66.94994 5265 ft 12 kts 137°
2026-05-08 22:03 30.24101 66.95069 5267 ft 13 kts 156°
2026-05-08 22:03 30.24047 66.95124 5268 ft 8 kts 76°
2026-05-08 22:04 30.24092 66.95115 5267 ft 8 kts 307°
2026-05-08 22:04 30.24126 66.95064 5266 ft 7 kts 311°
2026-05-08 22:04 30.24164 66.95020 5265 ft 7 kts 318°
2026-05-08 22:04 30.24223 66.94959 5263 ft 27 kts 315°
2026-05-08 22:05 30.24535 66.94617 5250 ft 96 kts 317°
2026-05-08 22:05 30.25172 66.93927 5223 ft 152 kts 318°
2026-05-08 22:05 30.26029 66.92979 5329 ft 184 kts 317°
2026-05-08 22:05 30.26930 66.91971 6162 ft 173 kts 316°
2026-05-08 22:06 30.27769 66.91050 6812 ft 177 kts 316°
2026-05-08 22:06 30.28726 66.89987 7200 ft 201 kts 316°
2026-05-08 22:06 30.29623 66.88649 7450 ft 232 kts 294°
2026-05-08 22:06 30.29752 66.86697 7894 ft 263 kts 257°
2026-05-08 22:07 30.28775 66.84836 8702 ft 284 kts 223°
2026-05-08 22:07 30.27005 66.83821 9621 ft 298 kts 191°
2026-05-08 22:07 30.24945 66.83862 10487 ft 312 kts 173°
2026-05-08 22:07 30.22671 66.84032 10833 ft 342 kts 184°
2026-05-08 22:08 30.20253 66.83686 11366 ft 362 kts 190°
2026-05-08 22:08 30.17672 66.83157 11717 ft 386 kts 191°
2026-05-08 22:08 30.15034 66.82610 12594 ft 393 kts 191°
2026-05-08 22:08 30.12343 66.82044 13332 ft 402 kts 191°
2026-05-08 22:09 30.09583 66.81450 14219 ft 407 kts 192°
2026-05-08 22:09 30.06783 66.80842 15029 ft 413 kts 192°
2026-05-08 22:09 30.03960 66.80226 15862 ft 419 kts 192°
2026-05-08 22:09 30.01111 66.79604 16643 ft 424 kts 193°
2026-05-08 22:10 29.98207 66.78968 17414 ft 429 kts 193°
2026-05-08 22:10 29.95259 66.78323 18163 ft 434 kts 193°
2026-05-08 22:10 29.92322 66.77679 18880 ft 439 kts 193°
2026-05-08 22:10 29.89323 66.77023 19582 ft 443 kts 194°
2026-05-08 22:11 29.86290 66.76358 20280 ft 447 kts 194°
2026-05-08 22:11 29.83250 66.75693 20938 ft 451 kts 194°
2026-05-08 22:11 29.80133 66.75011 21586 ft 455 kts 195°
2026-05-08 22:11 29.77029 66.74333 22200 ft 458 kts 195°
2026-05-08 22:12 29.73913 66.73653 22802 ft 461 kts 195°
2026-05-08 22:12 29.70750 66.72962 23367 ft 465 kts 195°
2026-05-08 22:12 29.67587 66.72272 23938 ft 468 kts 195°
2026-05-08 22:12 29.64388 66.71574 24479 ft 471 kts 195°
2026-05-08 22:13 29.61175 66.70875 25008 ft 473 kts 196°
2026-05-08 22:13 29.57973 66.70177 25495 ft 476 kts 196°
2026-05-08 22:13 29.54723 66.69471 26065 ft 477 kts 196°
2026-05-08 22:13 29.51453 66.68761 26570 ft 479 kts 196°
2026-05-08 22:14 29.48212 66.68056 27018 ft 481 kts 197°
2026-05-08 22:14 29.44922 66.67341 27468 ft 484 kts 197°
2026-05-08 22:14 29.41611 66.66771 27938 ft 490 kts 191°
2026-05-08 22:14 29.38176 66.66909 28250 ft 506 kts 175°
2026-05-08 22:15 29.34802 66.68206 28973 ft 511 kts 159°
2026-05-08 22:15 29.31679 66.70056 29690 ft 509 kts 156°
2026-05-08 22:15 29.28585 66.71925 30216 ft 507 kts 158°
2026-05-08 22:15 29.25435 66.73727 30685 ft 505 kts 160°
2026-05-08 22:16 29.22287 66.75479 30823 ft 502 kts 160°
2026-05-08 22:16 29.16021 66.78976 30831 ft 503 kts 159°
2026-05-08 22:17 29.09793 66.82488 30833 ft 503 kts 159°
2026-05-08 22:17 29.03879 66.85803 30830 ft 497 kts 159°
2026-05-08 22:18 28.97723 66.89231 30832 ft 492 kts 159°
2026-05-08 22:18 28.91580 66.92645 30831 ft 490 kts 159°
2026-05-08 22:19 28.85510 66.96030 30831 ft 490 kts 159°
2026-05-08 22:19 28.79411 66.99419 30830 ft 491 kts 159°
2026-05-08 22:20 28.73272 67.02820 30830 ft 491 kts 159°
2026-05-08 22:20 28.68352 67.05522 30832 ft 492 kts 159°
2026-05-08 22:21 28.62204 67.08890 30831 ft 493 kts 159°
2026-05-08 22:21 28.56062 67.12286 30832 ft 495 kts 158°
2026-05-08 22:22 28.49889 67.15724 30829 ft 496 kts 158°
2026-05-08 22:22 28.43674 67.19167 30830 ft 497 kts 159°
2026-05-08 22:23 28.37497 67.22550 30831 ft 498 kts 159°
2026-05-08 22:23 28.31249 67.25944 30832 ft 499 kts 158°
2026-05-08 22:24 28.25022 67.29377 30832 ft 499 kts 158°
2026-05-08 22:24 28.18809 67.32803 30831 ft 499 kts 159°
2026-05-08 22:25 28.12836 67.36056 30828 ft 498 kts 159°
2026-05-08 22:25 28.07306 67.39059 30830 ft 498 kts 159°
2026-05-08 22:26 28.01107 67.42447 30830 ft 499 kts 158°
2026-05-08 22:26 27.94884 67.45858 30831 ft 500 kts 158°
2026-05-08 22:27 27.88618 67.49258 30829 ft 499 kts 158°
2026-05-08 22:27 27.82381 67.52653 30830 ft 500 kts 158°
2026-05-08 22:28 27.76169 67.56047 30831 ft 498 kts 159°
2026-05-08 22:28 27.69916 67.59438 30830 ft 499 kts 159°
2026-05-08 22:29 27.63709 67.62807 30833 ft 499 kts 159°
2026-05-08 22:29 27.57440 67.66192 30830 ft 498 kts 159°
2026-05-08 22:30 27.51285 67.69520 30313 ft 484 kts 159°
2026-05-08 22:30 27.48260 67.71154 30020 ft 486 kts 159°
2026-05-08 22:30 27.45184 67.72804 29781 ft 493 kts 159°
2026-05-08 22:30 27.42077 67.74462 29534 ft 500 kts 159°
2026-05-08 22:31 27.38942 67.76132 29284 ft 503 kts 158°
2026-05-08 22:31 27.35807 67.77809 29032 ft 504 kts 158°
2026-05-08 22:31 27.32672 67.79495 28783 ft 504 kts 158°
2026-05-08 22:31 27.29519 67.81200 28533 ft 505 kts 158°
2026-05-08 22:32 27.26347 67.82915 28281 ft 505 kts 158°
2026-05-08 22:32 27.23196 67.84611 28031 ft 505 kts 158°
2026-05-08 22:32 27.20003 67.86326 27778 ft 506 kts 158°
2026-05-08 22:32 27.16838 67.88016 27530 ft 508 kts 158°
2026-05-08 22:33 27.13688 67.89699 27282 ft 509 kts 157°
2026-05-08 22:33 27.10499 67.91406 27031 ft 509 kts 157°
2026-05-08 22:33 27.07299 67.93117 26780 ft 509 kts 157°
2026-05-08 22:33 27.04101 67.94834 26529 ft 510 kts 157°
2026-05-08 22:34 27.00944 67.96534 26279 ft 511 kts 156°
2026-05-08 22:34 26.97735 67.98254 26030 ft 511 kts 156°
2026-05-08 22:34 26.94532 67.99965 25779 ft 510 kts 156°
2026-05-08 22:34 26.91343 68.01662 25530 ft 510 kts 156°
2026-05-08 22:35 26.88156 68.03359 25279 ft 509 kts 156°
2026-05-08 22:35 26.84983 68.05045 25029 ft 507 kts 156°
2026-05-08 22:35 26.81797 68.06741 24775 ft 505 kts 155°
2026-05-08 22:35 26.78677 68.08402 24528 ft 504 kts 155°
2026-05-08 22:36 26.75529 68.10078 24278 ft 503 kts 155°
2026-05-08 22:36 26.72362 68.11763 24025 ft 501 kts 155°
2026-05-08 22:36 26.69250 68.13414 23776 ft 499 kts 155°
2026-05-08 22:36 26.66097 68.15083 23522 ft 497 kts 155°
2026-05-08 22:37 26.63023 68.16711 23278 ft 496 kts 155°
2026-05-08 22:37 26.59900 68.18366 23025 ft 494 kts 155°
2026-05-08 22:37 26.56833 68.19991 22777 ft 492 kts 155°
2026-05-08 22:37 26.53731 68.21632 22524 ft 490 kts 155°
2026-05-08 22:38 26.50688 68.23241 22276 ft 489 kts 155°
2026-05-08 22:38 26.47635 68.24856 22026 ft 487 kts 155°
2026-05-08 22:38 26.44562 68.26480 21774 ft 485 kts 155°
2026-05-08 22:38 26.41544 68.28074 21525 ft 483 kts 154°
2026-05-08 22:39 26.38533 68.29663 21276 ft 482 kts 154°
2026-05-08 22:39 26.35521 68.31252 21027 ft 480 kts 154°
2026-05-08 22:39 26.32513 68.32818 20775 ft 478 kts 156°
2026-05-08 22:39 26.29369 68.34074 20521 ft 476 kts 164°
2026-05-08 22:40 26.26152 68.34846 20270 ft 474 kts 173°
2026-05-08 22:40 26.22905 68.34956 20024 ft 470 kts 185°
2026-05-08 22:40 26.19684 68.34502 19782 ft 467 kts 191°
2026-05-08 22:40 26.16525 68.33682 19519 ft 464 kts 200°
2026-05-08 22:41 26.13658 68.32150 19277 ft 458 kts 214°
2026-05-08 22:41 26.11025 68.30185 19031 ft 456 kts 217°
2026-05-08 22:41 26.08410 68.28218 18775 ft 455 kts 216°
2026-05-08 22:41 26.05802 68.26279 18526 ft 454 kts 216°
2026-05-08 22:42 26.03200 68.24334 18276 ft 452 kts 216°
2026-05-08 22:42 26.00612 68.22382 18026 ft 451 kts 216°
2026-05-08 22:42 25.98022 68.20419 17774 ft 450 kts 216°
2026-05-08 22:42 25.95464 68.18478 17525 ft 448 kts 216°
2026-05-08 22:43 25.92886 68.16519 17274 ft 447 kts 216°
2026-05-08 22:43 25.90327 68.14574 17023 ft 446 kts 216°
2026-05-08 22:43 25.87778 68.12635 16773 ft 444 kts 216°
2026-05-08 22:43 25.85233 68.10700 16523 ft 443 kts 216°
2026-05-08 22:44 25.82713 68.08784 16274 ft 442 kts 216°
2026-05-08 22:44 25.80205 68.06877 16025 ft 440 kts 216°
2026-05-08 22:44 25.77696 68.04971 15776 ft 439 kts 216°
2026-05-08 22:44 25.75153 68.03040 15523 ft 438 kts 216°
2026-05-08 22:45 25.72679 68.01161 15275 ft 436 kts 216°
2026-05-08 22:45 25.70193 67.99274 15026 ft 435 kts 216°
2026-05-08 22:45 25.67706 67.97388 14776 ft 434 kts 216°
2026-05-08 22:45 25.65216 67.95501 14525 ft 432 kts 216°
2026-05-08 22:46 25.62726 67.93614 14273 ft 431 kts 216°
2026-05-08 22:46 25.60268 67.91753 14024 ft 429 kts 216°
2026-05-08 22:46 25.57840 67.89880 13767 ft 420 kts 217°
2026-05-08 22:46 25.55493 67.88044 13518 ft 412 kts 216°
2026-05-08 22:47 25.53164 67.86266 13269 ft 405 kts 216°
2026-05-08 22:47 25.52664 67.85886 13215 ft 404 kts 216°
2026-05-08 22:47 25.50370 67.84135 12970 ft 404 kts 216°
2026-05-08 22:47 25.47980 67.82363 12735 ft 424 kts 214°
2026-05-08 22:48 25.45529 67.80569 12470 ft 422 kts 214°
2026-05-08 22:48 25.43184 67.78816 12019 ft 398 kts 215°
2026-05-08 22:48 25.40873 67.77080 11447 ft 400 kts 215°
2026-05-08 22:48 25.38631 67.75397 11026 ft 382 kts 215°
2026-05-08 22:49 25.36497 67.73795 10800 ft 360 kts 216°
2026-05-08 22:49 25.32499 67.70789 10448 ft 338 kts 216°
2026-05-08 22:49 25.30623 67.69379 10280 ft 320 kts 216°
2026-05-08 22:50 25.28839 67.68037 10119 ft 305 kts 216°
2026-05-08 22:50 25.27104 67.66733 9880 ft 295 kts 216°
2026-05-08 22:50 25.25445 67.65485 9527 ft 290 kts 217°
2026-05-08 22:50 25.23778 67.64232 9157 ft 286 kts 217°
2026-05-08 22:51 25.22140 67.63000 8798 ft 287 kts 217°
2026-05-08 22:51 25.20487 67.61758 8432 ft 286 kts 217°
2026-05-08 22:51 25.18877 67.60549 8075 ft 282 kts 217°
2026-05-08 22:51 25.17269 67.59343 7721 ft 278 kts 217°
2026-05-08 22:52 25.15691 67.58158 7373 ft 275 kts 217°
2026-05-08 22:52 25.14081 67.56950 7018 ft 278 kts 217°
2026-05-08 22:52 25.12509 67.55772 6667 ft 273 kts 217°
2026-05-08 22:52 25.10969 67.54617 6326 ft 268 kts 217°
2026-05-08 22:53 25.09429 67.53464 5987 ft 265 kts 217°
2026-05-08 22:53 25.07927 67.52338 5663 ft 257 kts 217°
2026-05-08 22:53 25.06474 67.51251 5323 ft 247 kts 217°
2026-05-08 22:53 25.05084 67.50210 5014 ft 238 kts 217°
2026-05-08 22:54 25.03736 67.49201 4715 ft 230 kts 217°
2026-05-08 22:54 25.02443 67.48232 4429 ft 223 kts 217°
2026-05-08 22:54 25.01194 67.47298 4255 ft 210 kts 217°
2026-05-08 22:54 25.00031 67.46429 4187 ft 195 kts 217°
2026-05-08 22:55 24.98971 67.45604 4128 ft 179 kts 222°
2026-05-08 22:55 24.98273 67.44591 4069 ft 155 kts 249°
2026-05-08 22:55 24.97880 67.43589 4003 ft 138 kts 250°
2026-05-08 22:55 24.97478 67.42641 3957 ft 135 kts 246°
2026-05-08 22:56 24.97113 67.41682 3907 ft 135 kts 252°
2026-05-08 22:56 24.96805 67.40702 3859 ft 134 kts 255°
2026-05-08 22:56 24.96536 67.39735 3808 ft 133 kts 256°
2026-05-08 22:56 24.96276 67.38747 3750 ft 135 kts 256°
2026-05-08 22:57 24.96020 67.37750 3611 ft 134 kts 256°
2026-05-08 22:57 24.95768 67.36756 3429 ft 134 kts 257°
2026-05-08 22:57 24.95520 67.35777 3255 ft 132 kts 257°
2026-05-08 22:57 24.95272 67.34798 3077 ft 132 kts 256°
2026-05-08 22:58 24.95029 67.33834 2904 ft 132 kts 256°
2026-05-08 22:58 24.94786 67.32870 2841 ft 129 kts 256°
2026-05-08 22:58 24.94540 67.31892 2792 ft 133 kts 256°
2026-05-08 22:58 24.94365 67.31164 2623 ft 128 kts 258°
2026-05-08 22:59 24.94317 67.30963 2589 ft 126 kts 257°
2026-05-08 22:59 24.94067 67.30034 2484 ft 131 kts 255°
2026-05-08 22:59 24.93822 67.29058 2258 ft 130 kts 256°
2026-05-08 22:59 24.93581 67.28106 2087 ft 129 kts 256°
2026-05-08 23:00 24.93339 67.27152 1908 ft 129 kts 256°
2026-05-08 23:00 24.93099 67.26203 1732 ft 128 kts 256°
2026-05-08 23:00 24.92858 67.25252 1556 ft 128 kts 256°
2026-05-08 23:00 24.92619 67.24310 1383 ft 128 kts 256°
2026-05-08 23:01 24.92382 67.23378 1211 ft 127 kts 256°
2026-05-08 23:01 24.92142 67.22432 1038 ft 127 kts 255°
2026-05-08 23:01 24.91904 67.21499 871 ft 126 kts 255°
2026-05-08 23:01 24.91666 67.20582 711 ft 126 kts 257°
2026-05-08 23:02 24.91440 67.19636 511 ft 128 kts 253°
2026-05-08 23:02 24.91192 67.18706 355 ft 126 kts 256°
2026-05-08 23:02 24.90956 67.17782 182 ft 127 kts 255°
2026-05-08 23:02 24.90720 67.16879 90 ft 109 kts 254°
2026-05-08 23:03 24.90597 67.16388 85 ft 15 kts 256°